RADUGA 27 [-]

Last updated on Jan. 22, 2021, 6:27 a.m. UTC

1 21132U 91014A   21021.76202076 -.00000351  00000-0  00000-0 0  9990
2 21132  15.0774 353.0409 0005165  32.3145 137.9186  1.00293392109536
UTC
Height (km)
Latitude
Longitude
Inclination
Orbital Period
UTC large
Height (km)
Speed (km/s)
/
Latitude / Longitude
Inclination (degrees)
Orbital Period (minutes)
Azimuth
Elevation
Range (km)
Doppler Factor
iOS Compass Heading
iOS Angle

Next 30 passes for location: Hong Kong

Rise time Rise Azimuth (degrees) Set time Set Azimuth (degrees) Duration Max altitude (degrees)

No matching passes for this satellites